Jacksonville Craig, FL

12:27 AM EDT on May 25, 2017 (GMT -0400)
Craig Municipal

Weather History for KCRG - December, 2013

Change the Weather History Date:

Wednesday, December 25, 2013

  Actual Average Record
Temperature  
Mean Temperature 51 °F -  
Max Temperature 61 °F 61 °F 81 °F (2015)
Min Temperature 41 °F 42 °F 30 °F (2010)
Degree Days  
Heating Degree Days 14    
Growing Degree Days 1 (Base 50)    
Moisture  
Dew Point 46 °F    
Average Humidity 79    
Maximum Humidity 87    
Minimum Humidity 61    
Precipitation  
Precipitation 0.00 in - - ()
Sea Level Pressure  
Sea Level Pressure 30.29 in    
Wind  
Wind Speed 10 mph (North)    
Max Wind Speed 16 mph    
Max Gust Speed 29 mph    
Visibility 9 miles    
Events      
Averages and records for this station are not official NWS values.
T = Trace of Precipitation, MM = Missing Value Source: NWS Daily Summary

Daily Weather History Graph

Daily Weather History Graph

Search for Another Location

Airport or City:

Trip Planner

Search our weather history database for the weather conditions in past years. The results will help you decide how hot, cold, wet, or windy it might be!

Date:

Astronomy

Dec. 25, 2013 Rise Set
Actual Time 7:20 AM EST 5:32 PM EST
Civil Twilight 6:54 AM EST 5:58 PM EST
Nautical Twilight 6:24 AM EST 6:28 PM EST
Astronomical Twilight 5:54 AM EST 6:57 PM EST
Moon 12:10 AM EST 12:14 PM EST
Length of Visible Light 11h 04m
Length of Day
10h 11m
Waning Gibbous, 49% of the Moon is Illuminated
Dec 25
Waning Gibbous
Jan 1
New
Jan 7
First Quarter
Jan 15
Full
Jan 24
Last Quarter

Hourly Weather History & Observations

Time (EST) Temp. Windchill Dew Point Humidity Pressure Visibility Wind Dir Wind Speed Gust Speed Precip Events Conditions
12:53 AM 46.0 °F 42.5 °F 33.1 °F 61% 30.31 in 10.0 mi North 6.9 mph - N/A   Clear
1:53 AM 45.0 °F 39.3 °F 34.0 °F 65% 30.29 in 10.0 mi North 11.5 mph - N/A   Clear
2:53 AM 44.1 °F 39.5 °F 34.0 °F 68% 30.29 in 10.0 mi North 8.1 mph - N/A   Clear
3:53 AM 43.0 °F 38.2 °F 34.0 °F 71% 30.28 in 10.0 mi North 8.1 mph - N/A   Clear
4:53 AM 41.0 °F 35.2 °F 35.1 °F 79% 30.27 in 10.0 mi NNW 9.2 mph - N/A   Clear
5:53 AM 42.1 °F 36.6 °F 35.1 °F 76% 30.27 in 10.0 mi NNW 9.2 mph - N/A   Clear
6:53 AM 41.0 °F 35.8 °F 37.0 °F 86% 30.28 in 10.0 mi NNW 8.1 mph - N/A   Clear
7:53 AM 43.0 °F 38.8 °F 39.0 °F 86% 30.29 in 10.0 mi NNW 6.9 mph - N/A   Clear
8:53 AM 48.0 °F - 42.1 °F 80% 30.31 in 10.0 mi NNW 8.1 mph - N/A   Partly Cloudy
9:53 AM 61.0 °F - 51.1 °F 70% 30.32 in 10.0 mi NNE 15.0 mph 20.7 mph N/A   Partly Cloudy
10:35 AM 59.0 °F - 51.1 °F 75% 30.33 in 10.0 mi NNE 15.0 mph 26.5 mph N/A   Mostly Cloudy
10:53 AM 59.0 °F - 51.1 °F 75% 30.32 in 10.0 mi NE 13.8 mph 25.3 mph N/A   Mostly Cloudy
11:53 AM 57.9 °F - 51.1 °F 78% 30.31 in 10.0 mi NNE 16.1 mph 28.8 mph N/A   Overcast
12:53 PM 57.0 °F - 50.0 °F 77% 30.29 in 10.0 mi NE 16.1 mph - N/A   Overcast
1:53 PM 55.9 °F - 50.0 °F 80% 30.28 in 10.0 mi NNE 13.8 mph 23.0 mph N/A   Overcast
2:02 PM 55.9 °F - 50.0 °F 80% 30.28 in 9.0 mi NNE 15.0 mph 21.9 mph N/A   Overcast
2:53 PM 55.9 °F - 51.1 °F 84% 30.27 in 8.0 mi NNE 12.7 mph 21.9 mph N/A   Overcast
3:53 PM 55.9 °F - 51.1 °F 84% 30.27 in 7.0 mi NNE 13.8 mph 20.7 mph N/A   Overcast
4:53 PM 55.9 °F - 51.1 °F 84% 30.27 in 7.0 mi North 12.7 mph 23.0 mph N/A   Overcast
5:53 PM 55.0 °F - 51.1 °F 86% 30.28 in 8.0 mi North 12.7 mph 20.7 mph N/A   Overcast
6:53 PM 55.0 °F - 51.1 °F 86% 30.27 in 8.0 mi North 10.4 mph - N/A   Overcast
7:53 PM 55.0 °F - 51.1 °F 86% 30.27 in 8.0 mi NNE 13.8 mph 21.9 mph N/A   Overcast
8:53 PM 55.0 °F - 51.1 °F 86% 30.27 in 8.0 mi North 9.2 mph - N/A   Overcast
9:53 PM 55.9 °F - 52.0 °F 87% 30.27 in 8.0 mi North 12.7 mph - N/A   Overcast
10:53 PM 55.9 °F - 52.0 °F 87% 30.27 in 8.0 mi North 12.7 mph - N/A   Overcast
11:53 PM 55.0 °F - 51.1 °F 86% 30.27 in 9.0 mi North 10.4 mph - N/A   Overcast